User: anonymous   Login
Location: Unspecified
(0.0000°N, 0.0000°E)
Time: 00:24:45
(UTC+00:00)
Language:

USA 82 - Orbit

View from above orbital plane
View from above orbital plane
View from above satellite
View from above satellite

Ground track
Ground track

The orbit data is extracted from the following two-line orbital elements,

1 22009U 92037A   17052.08003338 0.00000000  00000-0  00000-0 0    07
2 22009  11.6984  35.2965 0009701 270.9518  88.9491  0.98809556    02
Epoch (UTC): 21 February 2017 01:55:14
Eccentricity: 0.0009701
inclination: 11.6984°
perigee height: 36160 km
apogee height: 36242 km
right ascension of ascending node: 35.2965°
argument of perigee: 270.9518°
revolutions per day: 0.98809556
mean anomaly at epoch: 88.9491°
orbit number at epoch: 0

The dashed part of the orbit path shows where the satellite is in the earth's shadow,  

DLR